Starlink 31529

operational
NORAD ID: 59000 Int'l Des: 2024-036 Owner: SPXS Country: US Constellation: starlink
LEOCIRCULAR

Über Starlink 31529

Beschreibung wird geladen...

Live-Position

3D-Globus wird geladen...

Nächste Überflüge

Höhenverlauf

Altitude vs Time

uPlot chart will show altitude changes over time

Zweizeiliger Elementsatz

1 59000U 24036C 25304.36224404 .00000043 00000-0 13584-4 0 9990
2 59000 53.1606 316.6497 0001373 88.4355 271.6803 15.30187339 95472
Epoch: 31. Okt. 2025 • Age: 14 hours

Aktueller Status

Höhe 478.2 km
Geschwindigkeit 7.63 km/s
Subsatellitenpunkt 40.67°N, 32.39°W
Startdatum 23. Feb. 2024
Alter 1.6 years
Typ internet

Technische Details

Klassifizierung Payload
Masse 730.00 kg
Trockenmasse 700.00 kg
Gesamtmasse 730.00 kg
Länge 0.30 m
Durchmesser 4.10 m
Spannweite 29.00 m
Form Box + pan
Hersteller SPXS
Bus-Typ Starlink V2M
Phasenstatus In Orbit
Besitzer/Staat SPXS/US

Große Konstellationen

Loading constellations...